Tracking 29493 objects as of 8-Sep-2024
HD Live streaming from Space Station
objects crossing your sky now

FENGYUN 1C DEB

Track FENGYUN 1C DEB now!
10-day predictions


NORAD ID: 31880
Int'l Code: 1999-025CKF
Perigee: 848.3 km
Apogee: 1,038.2 km
Inclination: 100.0 °
Period: 103.8 minutes
Semi major axis: 7314 km
RCS: 0.0108 m2 (small)
Launch date: May 10, 1999
Source: People's Republic of China (PRC)
Launch site: Taiyaun Space Center, China (TSC)

Note: This is SATELLITE DEBRIS
Your satellite tracking list
Your tracking list is empty




NASA's NSSDC Master Catalog

Two Line Element Set (TLE):
1 31880U 99025CKF 24250.57279543  .00002110  00000-0  17008-2 0  9992
2 31880  99.9840  13.5812 0129842 284.5206  74.1575 13.87876367870587
Source of the keplerian elements: AFSPC